Regional Weather Roundup
Issued by NWS Mobile, AL

Home | Current Version | Previous Version | Text Only | Print | Product List | Glossary On
Versions: 1 2 3 4 5 6 7 8 9 10 11 12 13 14 15 16 17 18 19 20 21 22 23 24 25 26 27
000
ASUS44 KMOB 211712
RWRMOB
REGIONAL WEATHER ROUNDUP
NATIONAL WEATHER SERVICE MOBILE AL
1200 PM CDT SAT OCT 21 2017

NOTE: "FAIR" INDICATES FEW OR NO CLOUDS BELOW 12,000 FEET WITH NO
      SIGNIFICANT WEATHER AND/OR OBSTRUCTIONS TO VISIBILITY.

  * THESE STATIONS ARE PART OF THE UNIVERSITY OF SOUTH ALABAMA
    MESONET AND ARE NOT UNDER NWS OR FAA QUALITY CONTROL.

ALZ061>064-211800-
COASTAL ALABAMA

CITY           SKY/WX    TMP DP  RH WIND       PRES   REMARKS
MOBILE REG APT PTSUNNY   81  70  69 E12       30.15S
BROOKLEY FIELD PTSUNNY   81  73  76 E12       30.15F
USA CAMPUS*    NOT AVBL
DOG RIVER*     NOT AVBL


CITY           SKY/WX    TMP DP  RH WIND       PRES   REMARKS
GULF SHORES    CLOUDY    80  73  80 E20G30    30.15S

$$

ALZ051>060-211800-
INTERIOR SOUTHWEST AND SOUTH CENTRAL ALABAMA

CITY           SKY/WX    TMP DP  RH WIND       PRES   REMARKS
GREENVILLE     MOSUNNY   77  63  61 VRB7      30.20S
EVERGREEN      MOSUNNY   81  67  62 SE8       30.19S
ATMORE*          N/A    N/A N/A N/A SE10        N/A
ANDALUSIA/OPP  MOSUNNY   82  65  56 SE10G18   30.19S
ANDALUSIA*       N/A     79  68  69 E7        30.20S
FLORALA APT    MOSUNNY   81  66  60 E9        30.20F
FLORALA*         N/A     79  68  69 E3        30.92F

$$

FLZ001>006-211800-
WESTERN FLORIDA PANHANDLE

CITY           SKY/WX    TMP DP  RH WIND       PRES   REMARKS
PENSACOLA      CLOUDY    80  70  71 E12       30.17R
NAS PENSACOLA  CLOUDY    79  71  76 E16G23    30.16R
MILTON         PTSUNNY   79  69  71 SE8       30.17S
WHTNG S FIELD  PTSUNNY   83  66  56 SE12      30.17S


CITY           SKY/WX    TMP DP  RH WIND       PRES   REMARKS
JAY*             N/A     81  64  57 SE10      30.17F
DUKE FIELD     MOSUNNY   82  66  56 SE12        N/A
CRESTVIEW      PTSUNNY   82  67  60 VRB6      30.18F
VALPARAISO     PTSUNNY   80  67  65 E8        30.17S
DESTIN         MOSUNNY   82  67  60 SE13      30.17R

$$

MSZ076-079-211800-
INTERIOR SOUTHEAST MISSISSIPPI

CITY           SKY/WX    TMP DP  RH WIND       PRES   REMARKS
LEAKESVILLE*     N/A     79  70  73 SE7       30.15F
AGRICOLA*        N/A     79  72  78 SE5       30.13F

$$

MARINE OBSERVATIONS

STATION/POSITION TIME  TEMP    WIND        PRES    WAVE
                       AIR SEA DIR/SP/G            HT/PER
                 (UTC) (F)     (DEG/KT/KT) (MB)    (FT/S)
PASCAGOULA       1648   80     100/ 14/ 21 1019.8S
PETIT BOIS ISLND 1648   80     100/ 13/ 19 1020.8R
GRAND BAY        1545   76      80/  8     1021.0R
KATRINA CUT      1630   78     110/ 20     1020.0R
CEDAR POINT      1630   78     120/ 15     1020.3R
E DAUPHIN ISLAND 1600   78     100/ 20/ 22 1019.9R
MIDDLE BAY LIGHT 1630   77     110/ 17     1020.3S
USCG MOBILE BAY  1648   77 76  120/  9/ 12 1020.7F
STATE DOCKS      1642   79 77              1020.8F
MEAHER PARK      1630   79     120/ 12     1020.3S
WEEKS BAY        1545   80                 1020.0S
FORT MORGAN      1648   78     120/ 22/ 27   N/A
12 S ORANGE BCH  1650   78 79  100/ 17/ 21 1020.0R   6/ 7
PENSACOLA BAY    1642   78 74              1021.6R
64 S DAUPHIN ISL 1650   81 81  110/ 17/ 23 1019.2S   7/ 7
67 S FORT MORGAN 1630   80     110/ 21     1019.0S

$$

SELECTED LOCATIONS ACROSS THE REGION

CITY           SKY/WX    TMP DP  RH WIND       PRES   REMARKS
NEW ORLEANS    CLOUDY    83  75  77 SE18      30.07S
GULFPORT       CLOUDY    83  74  74 E17G25    30.09F
PASCAGOULA AP  PTSUNNY   82  70  66 SE16G25   30.12F
PASCAGOULA*      N/A     77  72  83 NE3         N/A
HATTIESBURG    MOSUNNY   77  70  79 E9        30.13F
LAUREL         CLOUDY    79  71  76 SE14      30.13F
MERIDIAN       CLOUDY    80  67  64 E5        30.16S
JACKSON        PTSUNNY   82  69  64 S14G22    30.11F
MONTGOMERY     MOSUNNY   77  60  55 E10       30.22F
TROY           CLOUDY    76  64  66 E9        30.22F
ASHFORD*         N/A     79  68  69 E7        30.20S
DOTHAN         MOSUNNY   80  66  62 E12       30.23F
PANAMA CITY    CLOUDY    81  67  62 E13       30.16S

$$





USA.gov is the U.S. government's official web portal to all federal, state and local government web resources and services.